Home   Weather   Bayreuth   Past weeks

Flag for Germany Past Weather in Bayreuth, Bavaria, Germany — Yesterday and Last 2 Weeks

Now
25 °F

Low clouds.


Feels Like: 25 °F
Forecast: 11 / 25 °F
Wind: No wind

Location: Grafenwoehr

Current Time: Dec 6, 2016 at 9:17:40 am

Latest Report: Dec 6, 2016 at 7:58 am


Visibility: N/A

Pressure: 30.50 "Hg

Humidity: 100%

Dew Point: 25 °F

Location of BayreuthLocation

Past Weather in Bayreuth — Graph

°F

Bayreuth Temperature Yesterday

Maximum temperature yesterday: 27 °F (at 8:58 pm)
Minimum temperature yesterday: 10 °F (at 5:58 am)
Average temperature yesterday: 20 °F

High & Low Weather Summary for the Past Weeks

 TemperatureHumidityPressure
High52 °F (Nov 22, 1:58 pm)100% (Nov 21, 7:58 am)30.64 "Hg (Nov 21, 7:58 am)
Low10 °F (Nov 30, 3:58 am)51% (Nov 29, 2:58 pm)29.76 "Hg (Nov 21, 1:58 pm)
Average33 °F86%30.22 "Hg
* Reported Nov 21 7:58 am — Dec 6 7:58 am, Bayreuth, Weather by CustomWeather, © 2016

Note: Actual official high and low records may vary slightly from our data, if they occured in-between our weather recording intervals... More about our weather records

Advertising

Bayreuth Weather History for the Previous 24 Hours

Scroll right to see more
 ConditionsComfort  
Time TempWeatherWind HumidityBarometerVisibility
7:58 am
Tue, Dec 6
25 °FLow clouds.No wind100%30.50 "HgN/A
6:58 am27 °FLow clouds.No wind93%30.47 "HgN/A
5:58 am27 °FLow clouds.3 mph93%30.45 "HgN/A
4:58 am27 °FLow clouds.3 mph93%30.45 "HgN/A
3:58 am27 °FIce fog.3 mph93%30.45 "Hg6 mi
2:58 am27 °FIce fog.5 mph93%30.45 "Hg4 mi
2:04 am27 °FIce fog.3 mph93%30.35 "Hg2 mi
1:59 am27 °FIce fog.No wind93%30.35 "Hg1 mi
12:58 am26 °FIce fog.No wind95%30.45 "Hg1 mi
11:59 pm
Mon, Dec 5
27 °FIce fog.No wind93%30.35 "Hg1 mi
11:02 pm27 °FIce fog.No wind93%30.35 "Hg2 mi
10:00 pm27 °FIce fog.3 mph93%30.34 "Hg2 mi
8:58 pm27 °FIce fog.No wind93%30.46 "Hg1 mi
7:58 pm25 °FIce fog.No wind100%30.47 "Hg2 mi
6:58 pm26 °FIce fog.5 mph96%30.45 "Hg2 mi
5:58 pm25 °FIce fog.3 mph100%30.45 "Hg1 mi
4:58 pm25 °FIce fog.No wind100%30.45 "Hg3 mi
3:58 pm25 °FIce fog.No wind93%30.45 "Hg3 mi
2:58 pm25 °FIce fog.3 mph93%30.44 "Hg4 mi
1:58 pm25 °FIce fog.6 mph93%30.45 "Hg3 mi
12:58 pm23 °FIce fog.No wind100%30.46 "Hg3 mi
11:58 am23 °FIce fog.No wind93%30.47 "Hg4 mi
10:58 am21 °FIce fog.5 mph100%30.48 "Hg4 mi
9:58 am19 °FLow clouds.No wind93%30.48 "HgN/A
Weather by CustomWeather, © 2016

See weather overviewHow to use our weather pages